Upstream stations:
SHEF ID: TIFM7 Elk River near Tiff City, Mo
STATION TYPE:
Regulating: Stage = 15.00, Flow = 21304
PRECIP STAGE STAGE(2) RIV-FLOW BAT-LOAD
in ft ft cfs volt
Ccp-Rev Ccp-Rev Ccp-Rev Ccp-Rev Ccp-Rev
(US/Central)
10/19 00:00 0.00 4.04 4.03 527 11.54
10/19 01:00 0.00 4.04 4.03 527 11.54
10/19 02:00 0.00 4.03 -99999.00 522 11.53
10/19 03:00 0.00 4.02 4.01 516 11.48
10/19 04:00 0.00 4.02 4.01 516 11.43
10/19 05:00 0.00 4.01 4.00 511 11.46
10/19 06:00 0.00 4.00 -99999.00 506 11.47
10/19 07:00 0.00 4.00 3.99 506 11.43
10/19 08:00 0.00 3.99 3.99 501 11.42
10/19 09:00 0.00 3.99 3.98 501 12.02
10/19 10:00 0.00 3.98 3.98 496 12.65
10/19 11:00 0.00 3.98 3.98 496 12.77
10/19 12:00 0.00 3.98 3.97 496 12.75
10/19 13:00 0.00 3.97 3.94 491 12.60
10/19 14:00 0.00 3.97 3.94 491 12.57
10/19 15:00 0.00 3.97 3.96 491 12.44
10/19 16:00 0.00 3.96 3.95 486 12.31
10/19 17:00 0.00 3.95 3.94 481 12.04
10/19 18:00 0.00 3.94 3.93 476 12.02
10/19 19:00 0.00 3.94 3.93 476 11.85
10/19 20:00 0.00 3.93 3.92 471 11.60
10/19 21:00 0.00 3.93 3.91 471 11.57
10/19 22:00 0.00 3.92 3.91 466 11.55
10/19 23:00 0.00 3.92 3.90 466 11.52